星链-4408 (STARLINK-4408 )

导读

STARLINK-4408是美国太空探索技术公司星链星座的卫星,由美国于2022年7月22日发射升空,归属星链互联网卫星项目,该项目旨在为全球提供覆盖广泛的低轨卫星互联网服务。该卫星运行在近地轨道,属于星链批量部署的组网卫星,助力完善全球卫星通信网络覆盖。

基本信息
目录编号:
53206
目录名称:
STARLINK-4408
国际标识:
2022-084T
轨道中心:
EARTH
卫星名称:
星链-4408
卫星全名:
星链-4408 (STARLINK-4408 )
卫星状态:
在轨 (已飞行1513 天)
发射日期:
2022-07-22 UTC
国别 :
美国 (US)
星等 :
--
该卫星已列入 空间交会检测服务 Space Conjunction Data Service (SCDS) ,当前飞行风险评估等级: 无高风险
轨道信息
数据来源 国际轨道数据
星历时间: 2026-09-12T12:00:02+0800
6小时前
查看轨道信息
半长轴: 6681.674km
偏心率: 0.0000869
轨道倾角: 97.278°
近地点辐角 55.295°
升交点赤经 314.375°
平近点角 56.283°
近地点: 302.956km
远地点: 304.118km
周期: 90.592分钟
每日圈数: 15.895524
详细信息
固有亮度:
5
最大亮度:
2.5
卫星平台:
Starlink v1.5
覆盖范围:
全球
运营商:
太空探索技术公司
运营商所在国:
美国
制造商(研发单位):
太空探索技术公司
制造商所在国:
美国
使用方式:
暂无
卫星简介
星链(Starlink)计划是由太空探索技术公司(SpaceX)提出的一个巨型低轨卫星互联网星座项目,计划在2019年至2024年间在太空搭建由约1.2万颗卫星组成的“星链”网络,其中1584颗将部署在地球上空550千米处的近地轨道,并从2020年开始工作。该卫星仍在工作。
2D轨道图
3D轨道图
轨道高度分析图
轨道倾角分析图
轨道综合分析图
查看轨道综合分析图
与全量物体交会距离演化趋势
与全量物体交会风险概率演化趋势